EN

Hourly Weather Allenwil

Today, 16 January, Saturday

Time Temperature Precipitation Wind Pressure Humidity
00:00 -7°C° 0 mm 2 mps 717 mmHg 94%
01:00 -6°C° 0 mm 1 mps 718 mmHg 94%
02:00 -7°C° 0 mm 1 mps 718 mmHg 94%
03:00 -7°C° 0 mm 1 mps 718 mmHg 93%
04:00 -7°C° 0 mm 1 mps 718 mmHg 92%
05:00 -7°C° 0 mm 1 mps 718 mmHg 91%
06:00 -7°C° 0 mm 0 mps 718 mmHg 91%
07:00 -6°C° 0 mm 0 mps 718 mmHg 89%
08:00 -5°C° 0 mm 0 mps 718 mmHg 87%
09:00 -5°C° 0 mm 0 mps 718 mmHg 85%
10:00 -3°C° 0 mm 0 mps 717 mmHg 82%
11:00 -2°C° 0 mm 0 mps 717 mmHg 79%
12:00 -1°C° 0 mm 0 mps 717 mmHg 74%
13:00 0°C° 0 mm 1 mps 716 mmHg 77%
14:00 0°C° 0 mm 1 mps 716 mmHg 79%
15:00 0°C° 0 mm 1 mps 716 mmHg 81%
16:00 -1°C° 0 mm 1 mps 716 mmHg 83%
17:00 -1°C° 0 mm 1 mps 716 mmHg 84%
18:00 -1°C° 0 mm 1 mps 715 mmHg 86%
19:00 -3°C° 0.1 mm 2 mps 715 mmHg 87%
20:00 -3°C° 0.1 mm 2 mps 715 mmHg 87%
21:00 -2°C° 0.1 mm 2 mps 715 mmHg 88%
22:00 -2°C° 0.4 mm 3 mps 714 mmHg 90%
23:00 -2°C° 0.4 mm 3 mps 714 mmHg 92%

Tomorrow, 17 January, Sunday

Time Temperature Precipitation Wind Pressure Humidity
00:00 -1°C° 0.4 mm 3 mps 713 mmHg 93%
01:00 -1°C° 1.1 mm 3 mps 713 mmHg 94%
02:00 0°C° 1.1 mm 3 mps 712 mmHg 96%
03:00 0°C° 1.1 mm 3 mps 711 mmHg 97%
04:00 0°C° 0.2 mm 3 mps 712 mmHg 97%
05:00 0°C° 0.2 mm 3 mps 712 mmHg 98%
06:00 +1°C° 0.2 mm 3 mps 712 mmHg 98%
07:00 +1°C° 0.3 mm 3 mps 712 mmHg 98%
08:00 +1°C° 0.3 mm 3 mps 712 mmHg 98%
09:00 +1°C° 0.3 mm 3 mps 712 mmHg 97%
10:00 +1°C° 0.6 mm 3 mps 712 mmHg 98%
11:00 +1°C° 0.6 mm 3 mps 713 mmHg 98%
12:00 +1°C° 0.6 mm 3 mps 713 mmHg 98%
13:00 +1°C° 0.9 mm 3 mps 713 mmHg 98%
14:00 +2°C° 0.9 mm 2 mps 713 mmHg 98%
15:00 +1°C° 0.9 mm 2 mps 714 mmHg 98%
16:00 +1°C° 0.5 mm 2 mps 715 mmHg 98%
17:00 +2°C° 0.5 mm 1 mps 715 mmHg 98%
18:00 +1°C° 0.5 mm 1 mps 716 mmHg 98%
19:00 +1°C° 0.2 mm 1 mps 717 mmHg 97%
20:00 +1°C° 0.2 mm 1 mps 717 mmHg 97%
21:00 0°C° 0.2 mm 1 mps 718 mmHg 96%
22:00 0°C° 0 mm 1 mps 718 mmHg 95%
23:00 -1°C° 0 mm 1 mps 718 mmHg 95%

Day after tomorrow, 18 January, Monday

Time Temperature Precipitation Wind Pressure Humidity
00:00 -1°C° 0 mm 1 mps 719 mmHg 94%
01:00 -1°C° 0.1 mm 1 mps 718 mmHg 93%
02:00 -1°C° 0.1 mm 1 mps 718 mmHg 93%
03:00 -1°C° 0.1 mm 1 mps 718 mmHg 93%
04:00 -2°C° 0 mm 1 mps 719 mmHg 93%
05:00 -2°C° 0 mm 1 mps 719 mmHg 93%
06:00 -2°C° 0 mm 1 mps 719 mmHg 93%
07:00 -2°C° 0 mm 1 mps 719 mmHg 92%
08:00 -1°C° 0 mm 1 mps 719 mmHg 91%
09:00 -1°C° 0 mm 1 mps 719 mmHg 90%
10:00 0°C° 0 mm 1 mps 719 mmHg 89%
11:00 +1°C° 0 mm 1 mps 719 mmHg 88%
12:00 +2°C° 0 mm 1 mps 719 mmHg 87%
13:00 +1°C° 0 mm 0 mps 718 mmHg 89%
14:00 +1°C° 0 mm 0 mps 718 mmHg 90%
15:00 +1°C° 0 mm 0 mps 718 mmHg 92%
16:00 0°C° 0 mm 0 mps 718 mmHg 92%
17:00 -1°C° 0 mm 0 mps 718 mmHg 92%
18:00 -1°C° 0 mm 1 mps 718 mmHg 92%
19:00 -2°C° 0 mm 1 mps 718 mmHg 91%
20:00 -2°C° 0 mm 1 mps 718 mmHg 90%
21:00 -2°C° 0 mm 1 mps 717 mmHg 89%
22:00 -2°C° 0 mm 1 mps 717 mmHg 89%
23:00 -2°C° 0 mm 1 mps 717 mmHg 88%

19 January, Tuesday

Time Temperature Precipitation Wind Pressure Humidity
00:00 -2°C° 0 mm 1 mps 717 mmHg 87%
01:00 -2°C° 0 mm 1 mps 716 mmHg 86%
02:00 -2°C° 0 mm 1 mps 715 mmHg 85%
03:00 -4°C° 0 mm 2 mps 715 mmHg 84%
04:00 -4°C° 0 mm 2 mps 715 mmHg 83%
05:00 -3°C° 0 mm 2 mps 715 mmHg 82%
06:00 -3°C° 0 mm 2 mps 715 mmHg 81%
07:00 -2°C° 0 mm 2 mps 714 mmHg 80%
08:00 -1°C° 0 mm 2 mps 714 mmHg 79%
09:00 +1°C° 0 mm 2 mps 714 mmHg 78%
10:00 +2°C° 0 mm 2 mps 713 mmHg 80%
11:00 +3°C° 0 mm 2 mps 713 mmHg 82%
12:00 +4°C° 0 mm 2 mps 713 mmHg 84%
13:00 +4°C° 0 mm 2 mps 712 mmHg 84%
14:00 +4°C° 0 mm 2 mps 712 mmHg 84%
15:00 +3°C° 0 mm 2 mps 711 mmHg 84%
16:00 +2°C° 0 mm 2 mps 711 mmHg 82%
17:00 +2°C° 0 mm 2 mps 712 mmHg 80%
18:00 +1°C° 0 mm 2 mps 712 mmHg 78%
19:00 +1°C° 0 mm 2 mps 712 mmHg 78%
20:00 +1°C° 0 mm 2 mps 711 mmHg 78%
21:00 -1°C° 0 mm 3 mps 711 mmHg 79%
22:00 -1°C° 0 mm 2 mps 711 mmHg 78%
23:00 -1°C° 0 mm 2 mps 711 mmHg 78%

20 January, Wednesday

Time Temperature Precipitation Wind Pressure Humidity
00:00 -1°C° 0 mm 2 mps 710 mmHg 78%
01:00 -1°C° 0 mm 2 mps 710 mmHg 78%
02:00 -1°C° 0 mm 2 mps 710 mmHg 79%
03:00 +1°C° 0 mm 2 mps 709 mmHg 79%
04:00 +1°C° 0 mm 2 mps 709 mmHg 79%
05:00 +1°C° 0 mm 2 mps 709 mmHg 79%
06:00 +1°C° 0 mm 2 mps 708 mmHg 79%
07:00 +1°C° 0 mm 2 mps 708 mmHg 79%
08:00 +3°C° 0 mm 1 mps 708 mmHg 79%
09:00 +3°C° 0 mm 1 mps 707 mmHg 80%
10:00 +4°C° 0 mm 1 mps 707 mmHg 81%
11:00 +5°C° 0 mm 1 mps 706 mmHg 83%
12:00 +5°C° 0 mm 1 mps 706 mmHg 85%
13:00 +5°C° 0 mm 1 mps 705 mmHg 85%
14:00 +5°C° 0 mm 1 mps 704 mmHg 86%
15:00 +4°C° 0 mm 1 mps 704 mmHg 86%
16:00 +3°C° 0 mm 1 mps 704 mmHg 85%
17:00 +3°C° 0 mm 1 mps 703 mmHg 84%
18:00 +2°C° 0 mm 1 mps 703 mmHg 83%
19:00 +2°C° 0 mm 1 mps 703 mmHg 84%
20:00 +2°C° 0 mm 1 mps 703 mmHg 84%
21:00 +1°C° 0 mm 2 mps 703 mmHg 85%
22:00 +1°C° 0 mm 2 mps 703 mmHg 85%
23:00 +1°C° 0 mm 2 mps 702 mmHg 86%

21 January, Thursday

Time Temperature Precipitation Wind Pressure Humidity
00:00 +1°C° 0 mm 2 mps 702 mmHg 86%
01:00 +1°C° 0 mm 2 mps 701 mmHg 86%
02:00 +1°C° 0 mm 2 mps 701 mmHg 86%
03:00 -1°C° 0 mm 2 mps 700 mmHg 86%
04:00 +1°C° 0 mm 2 mps 701 mmHg 86%
05:00 0°C° 0 mm 3 mps 701 mmHg 86%
06:00 +1°C° 0 mm 3 mps 701 mmHg 86%
07:00 +1°C° 1.8 mm 3 mps 702 mmHg 89%
08:00 +1°C° 1.8 mm 3 mps 703 mmHg 93%
09:00 +2°C° 1.8 mm 3 mps 704 mmHg 97%
10:00 +1°C° 0.6 mm 4 mps 704 mmHg 96%
11:00 +1°C° 0.6 mm 4 mps 704 mmHg 95%
12:00 +3°C° 0.6 mm 4 mps 704 mmHg 95%
13:00 +3°C° 0 mm 4 mps 704 mmHg 92%
14:00 +3°C° 0 mm 4 mps 703 mmHg 89%
15:00 +3°C° 0 mm 4 mps 703 mmHg 86%
16:00 +1°C° 0 mm 4 mps 703 mmHg 86%
17:00 +2°C° 0 mm 3 mps 703 mmHg 86%
18:00 +1°C° 0 mm 3 mps 703 mmHg 85%
19:00 +1°C° 0 mm 3 mps 703 mmHg 85%
20:00 +1°C° 0 mm 3 mps 703 mmHg 84%
21:00 +1°C° 0 mm 2 mps 702 mmHg 84%
22:00 +2°C° 0 mm 2 mps 702 mmHg 84%
23:00 +2°C° 0 mm 2 mps 702 mmHg 83%
Show more